Find Starlink 2640

NORAD ID: 48438 Int'l Des: 2021-040 Owner: SPXS Country: US Constellation: starlink operational
LEOCIRCULAR

当前视图

正在加载3D地球...

About Starlink 2640

Starlink 2640 (NORAD 48438) is a starlink constellation satellite (v1.0) launched May 9, 2021 by SPXS of US. It operates in LEO, CIRCULAR orbit with a mass of 260.00 kg.

即将过境

Passes for default location (London). Set your location on the main map for personalized predictions.

高度历史

Loading altitude history...

两行轨道根数

1 48438U 21040L 26263.54245943 -.00000080 00000-0 91757-5 0 9992
2 48438 53.1617 351.4026 0001109 92.0491 268.0637 15.31711758296535
Epoch: Sep 20, 2026 • Age: 16 hours

当前状态

高度 475.4 km
远地点 / 近地点 N/A
速度 7.63 km/s
星下点 47.97°N, 30.64°W
发射日期 May 9, 2021
运行时间 5.3 years
类型 internet

技术详情

分类 Payload
质量 260.00 kg
干质量 248.00 kg
长度 0.20 m
跨度 9.00 m
形状 ? Box + pan
制造商 SPXS
平台类型 Starlink
阶段状态 In Orbit
所有者/国家 SPXS/US

Most Searched